Theta_e
327 330 336 335 331 328 331 337 334 337 334 332 333 335 337 338 337 336 339 336 329 329 333 338 340 341 338 337 337 339 339 339 339 339 340 338 338 335 329 328 327 327 329 333 335 336 338 339 338
330 333 335 331 329 332 333 334 338 336 333 334 335 335 337 341 343 341 339 338 332 336 336 337 339 338 336 337 339 340 340 339 337 338 338 338 331 328 326 325 325 325 325 328 329 330 332 333 334
335 337 333 335 334 332 335 335 336 334 333 337 338 335 335 337 342 340 341 336 336 338 339 338 339 338 337 340 339 338 339 338 337 338 338 335 327 320 321 325 324 325 325 325 326 326 327 328 329
338 334 332 340 344 341 333 335 337 337 335 335 337 340 337 338 340 341 341 338 336 339 340 342 342 339 341 338 336 335 336 336 336 336 335 330 324 321 320 323 325 325 326 327 326 326 327 326 328
334 333 337 341 343 343 337 336 336 337 337 336 337 341 340 343 343 342 341 340 340 340 341 341 340 339 338 336 331 329 328 326 326 325 324 327 323 322 324 324 326 326 326 326 326 327 326 326 328
330 335 340 342 343 340 342 338 338 336 337 339 339 339 332 342 342 342 341 341 337 340 340 338 338 336 335 331 327 326 324 323 322 329 331 330 332 329 325 326 327 327 326 325 326 326 326 326 326
332 337 343 340 341 342 342 340 340 340 340 341 339 339 326 326 329 336 342 336 333 338 336 337 337 337 332 327 327 326 323 321 323 324 324 324 323 326 327 324 327 326 326 327 327 326 325 320 319
333 336 341 340 341 343 341 341 340 341 342 337 338 336 330 322 329 332 335 328 327 328 329 335 338 335 329 329 328 325 322 320 323 321 321 320 322 322 324 324 324 327 326 326 327 325 320 319 319
331 337 339 340 339 339 339 342 340 338 340 337 330 334 324 323 325 325 326 327 327 327 327 328 334 332 329 331 333 324 321 320 319 321 320 318 320 321 320 321 319 324 322 321 319 318 319 319 319
333 331 337 337 336 336 339 339 339 341 339 327 322 321 322 325 324 324 324 324 325 324 324 326 334 331 331 331 331 325 321 320 319 317 316 316 318 320 319 318 318 319 319 319 318 318 316 318 319
332 336 333 338 336 336 339 339 340 340 341 327 324 321 320 321 321 322 323 322 323 324 322 324 328 335 334 331 331 325 321 321 320 319 317 316 320 320 319 318 319 319 318 318 317 315 313 317 319
336 332 334 336 336 338 340 339 342 339 339 330 322 321 321 321 320 320 321 322 322 321 320 322 325 328 332 327 325 323 321 321 320 319 318 316 318 320 319 318 318 318 317 316 314 311 314 317 317
336 336 334 335 334 338 339 341 341 340 330 323 322 322 321 320 320 320 320 321 321 320 320 321 323 324 323 322 322 322 322 321 320 319 318 316 318 319 318 317 317 317 317 315 312 312 314 316 317
334 333 334 334 334 338 342 341 341 340 326 324 323 322 321 321 321 321 320 320 320 319 320 321 321 322 322 321 321 322 322 321 321 319 317 317 316 318 318 316 316 316 315 312 311 311 313 314 314
334 337 334 338 338 341 340 345 344 338 327 325 324 323 322 321 322 322 323 323 319 317 319 320 320 321 322 321 320 321 321 320 321 319 318 316 314 315 316 315 316 315 313 311 311 311 311 312 312
337 334 339 336 340 341 340 346 343 333 327 327 326 325 325 323 323 323 324 324 321 316 318 320 320 320 321 321 321 321 321 321 320 319 319 316 313 314 314 315 316 315 310 311 311 311 311 312 313
330 336 338 340 338 343 341 343 337 331 329 328 327 326 325 324 324 325 325 325 323 319 317 319 320 321 321 321 321 321 320 321 321 320 320 317 315 315 315 314 315 314 311 311 311 311 311 312 315
328 336 337 339 337 342 345 345 341 339 331 330 328 328 326 325 325 325 326 326 324 322 319 317 317 319 322 322 322 322 322 320 321 320 320 318 317 316 315 315 314 313 312 311 311 311 312 312 314
329 334 336 334 336 342 343 344 339 341 339 337 333 330 329 326 326 327 326 326 325 324 322 319 317 315 320 321 321 321 321 321 320 320 320 319 318 317 316 315 314 314 313 312 311 311 311 311 312
335 336 336 335 337 338 336 337 339 340 343 341 342 339 332 329 327 328 327 327 326 325 324 323 320 316 320 321 321 320 321 321 321 320 320 320 319 318 317 315 314 313 314 314 312 312 311 312 312
334 335 334 335 338 337 332 331 336 342 343 341 341 341 338 333 329 329 329 327 326 326 326 325 324 317 320 321 321 321 321 322 322 321 320 320 319 318 317 316 314 314 314 314 314 313 312 312 312
332 329 333 337 334 336 330 335 332 340 340 343 341 340 340 337 332 329 330 328 327 327 327 327 324 321 318 321 322 322 321 322 322 321 320 320 320 319 318 316 315 314 315 314 314 315 313 313 312
331 332 334 335 336 335 335 335 336 339 337 336 334 339 337 334 335 333 330 329 328 327 328 326 324 323 318 318 321 322 321 321 321 320 320 321 320 319 318 317 316 315 315 315 314 314 315 314 313
332 330 326 329 330 335 336 337 337 336 335 333 333 332 332 330 330 333 330 329 328 329 332 332 327 324 321 320 321 322 322 321 321 320 321 320 320 319 318 317 317 316 316 315 315 314 314 314 314
328 328 332 333 334 335 333 340 335 332 332 334 334 331 331 330 330 331 328 329 329 329 332 328 333 325 324 322 320 320 321 320 319 319 320 321 321 320 319 319 318 317 317 317 315 315 314 314 314
332 329 331 336 335 332 331 341 334 332 333 331 333 332 331 330 328 331 328 330 330 329 334 327 332 331 326 323 321 319 321 321 320 321 321 321 320 318 319 319 319 318 318 317 317 316 315 315 315
332 332 328 330 328 330 328 330 328 334 334 335 333 332 330 331 330 330 330 331 330 331 334 329 330 330 329 325 322 321 321 322 322 320 320 320 320 319 319 319 318 318 318 318 318 318 318 317 317
330 328 331 327 333 335 332 334 332 333 333 335 334 332 330 331 332 330 330 330 330 331 333 329 333 330 329 326 324 323 322 321 322 321 321 320 320 320 320 320 320 320 319 319 319 319 319 318 318
332 332 330 326 328 334 337 334 326 332 331 332 332 330 331 332 333 332 330 330 330 332 331 331 331 330 327 326 325 324 323 322 322 322 321 321 321 321 320 320 321 321 320 320 319 319 319 319 319
329 330 328 330 331 332 332 334 333 332 331 331 332 331 330 330 332 331 331 330 330 331 331 331 331 331 329 327 325 325 324 323 322 322 322 321 321 321 321 321 321 321 321 321 320 320 320 320 319
Wind_Speed
7 7 4 1 4 5 2 4 1 2 2 2 3 5 6 0 0 2 2 9 6 7 6 6 3 2 1 2 4 6 7 7 7 7 6 7 8 9 11 12 12 12 10 10 10 11 11 11 10
9 6 2 2 5 4 4 2 1 1 4 7 7 3 4 3 1 2 8 6 7 6 6 5 4 2 2 3 5 7 7 7 7 6 6 7 9 10 11 13 13 13 10 9 9 10 11 12 12
6 2 3 4 4 3 2 4 4 1 4 1 4 3 3 2 1 8 6 11 6 4 6 5 4 3 4 5 5 7 7 7 7 8 8 7 8 9 11 12 13 13 14 13 12 12 12 12 12
4 3 4 5 3 1 3 5 5 1 3 4 3 5 3 6 5 4 14 9 7 8 7 6 4 4 4 4 5 7 8 8 7 7 6 5 6 7 8 9 10 11 12 12 12 11 10 12 13
4 3 5 5 3 2 1 4 0 1 2 4 3 2 3 6 15 16 11 8 9 8 8 6 5 4 5 6 7 10 10 9 8 6 5 1 4 6 6 6 8 10 10 11 11 10 9 11 11
4 3 5 2 2 3 3 3 2 4 4 4 5 3 3 5 14 12 13 11 8 8 7 6 5 4 5 6 9 10 10 11 9 8 9 5 4 6 7 5 7 8 9 10 11 9 10 11 11
5 4 2 3 2 2 3 2 3 2 3 3 1 3 2 7 10 12 13 10 8 7 5 4 5 5 6 8 9 8 9 11 11 7 6 5 5 7 9 6 7 7 8 8 9 9 10 11 10
4 4 3 2 3 2 4 2 4 2 3 2 5 6 5 6 15 15 13 10 8 6 4 3 6 7 9 8 8 7 7 9 8 6 7 7 6 7 7 4 8 9 10 9 8 9 8 10 8
3 4 3 7 6 5 5 4 2 1 2 1 3 4 9 18 17 15 12 10 8 7 5 3 7 10 10 7 7 5 6 9 9 7 8 8 6 6 5 8 9 9 8 9 10 10 10 10 7
4 4 7 7 5 5 6 5 7 5 4 3 4 9 19 18 15 12 10 7 5 4 5 4 6 12 10 8 5 3 4 8 10 10 10 10 6 5 7 9 10 6 9 11 13 14 12 8 7
2 3 4 4 5 6 7 4 4 7 3 6 11 12 13 14 11 9 8 5 4 4 3 4 5 12 10 8 8 6 2 5 9 11 12 11 7 5 8 10 9 8 11 14 16 15 13 8 6
1 0 6 4 5 7 8 5 2 7 5 8 12 18 14 10 13 13 12 9 6 3 0 3 5 7 9 8 8 7 3 4 7 10 12 11 7 6 9 11 9 11 14 16 17 16 11 8 5
1 2 3 4 8 4 7 7 4 8 2 12 14 13 10 12 17 15 12 10 7 6 5 3 6 6 6 7 8 7 4 2 6 8 10 10 9 6 9 11 9 11 14 18 19 15 11 9 8
3 4 3 2 6 4 4 3 1 4 8 10 11 11 9 11 16 13 14 11 10 8 7 5 5 5 5 7 4 6 5 1 3 6 9 11 11 9 11 12 11 12 16 18 16 16 12 10 10
2 4 4 1 4 1 4 5 13 6 13 14 13 10 9 13 18 22 18 16 13 11 9 7 5 5 4 6 3 4 5 2 2 4 8 10 10 10 11 11 10 14 18 17 16 15 13 11 9
5 5 2 3 7 2 8 11 11 10 14 13 13 11 11 11 21 23 19 16 14 11 10 10 7 7 8 6 3 5 7 5 3 2 6 9 10 10 11 11 11 14 16 16 16 17 17 17 9
5 3 5 6 7 4 6 9 5 10 13 13 13 11 9 8 14 24 23 19 16 11 9 10 10 8 8 7 7 6 7 9 6 4 3 5 6 8 11 11 10 14 15 16 16 16 18 20 10
4 4 4 5 7 6 7 22 4 8 12 14 12 10 8 9 17 25 26 22 17 13 9 9 10 10 10 10 10 11 10 10 11 8 4 3 4 7 10 10 10 11 12 16 17 15 16 20 9
2 3 4 3 4 6 11 13 9 8 12 8 9 13 14 13 13 24 27 24 20 16 13 12 10 11 13 10 9 10 12 12 13 11 8 5 5 6 9 10 10 9 11 14 16 16 16 18 18
3 3 5 1 2 4 0 10 2 5 11 14 13 15 13 14 8 14 21 26 26 22 15 15 12 12 14 11 10 7 10 9 12 12 11 8 8 7 7 9 9 8 9 10 12 15 14 12 14
3 4 1 2 2 2 5 7 4 3 2 7 10 10 10 14 15 11 17 27 28 22 18 20 14 12 13 11 11 10 8 9 11 12 13 11 10 9 8 8 8 7 8 9 10 11 12 12 10
4 3 5 4 4 2 3 4 4 3 7 6 9 12 16 12 12 13 18 25 26 27 19 19 16 12 11 12 12 11 12 9 10 9 11 11 12 12 9 8 8 9 8 9 10 9 9 9 9
3 4 5 3 3 1 5 3 7 5 6 6 8 13 7 10 13 19 21 27 25 17 10 14 17 16 10 11 11 11 11 9 7 7 9 9 9 9 9 9 9 10 10 9 9 10 9 9 8
6 4 7 4 3 4 5 3 6 3 4 8 4 4 7 9 12 14 11 19 23 19 20 11 25 21 12 9 10 10 10 11 11 11 10 7 8 9 11 12 12 12 12 12 12 11 12 11 11
4 6 3 4 5 4 4 2 8 6 5 4 9 11 11 10 12 5 11 24 30 33 27 22 25 23 15 12 12 13 11 11 12 12 12 12 11 11 13 15 16 16 15 14 14 16 18 16 17
3 4 5 1 1 5 4 4 5 4 2 4 6 8 9 10 7 6 12 20 22 30 31 28 27 24 18 15 14 12 10 10 13 13 14 12 11 11 11 13 16 18 17 18 19 19 20 21 22
1 2 3 6 3 2 3 7 7 2 1 5 8 9 10 13 12 6 14 19 25 32 34 27 20 19 19 19 16 13 13 14 14 13 14 13 13 13 14 15 17 17 19 20 20 22 25 25 26
2 4 3 3 0 3 5 5 5 4 6 3 6 9 10 12 12 9 10 19 24 34 28 16 8 12 20 20 18 16 14 13 14 15 16 15 16 17 17 19 20 20 21 21 22 24 25 26 27
1 1 5 4 4 4 2 7 5 5 7 6 6 7 8 9 9 6 5 10 18 24 22 13 8 8 18 21 19 16 15 14 15 19 20 20 21 21 22 22 22 24 25 24 25 27 28 28 30
1 3 5 5 4 2 4 6 3 3 5 3 5 6 6 6 5 4 5 8 15 21 21 18 12 13 14 16 16 16 15 15 17 20 23 24 24 24 23 24 25 26 27 28 28 30 31 33 35
Wind_Direction
151 140 138 85 56 65 57 12 63 47 62 322 63 112 132 22 89 174 13 142 110 130 135 127 127 122 78 48 49 46 44 36 27 31 39 50 50 49 38 26 11 358 350 346 345 343 346 350 348
140 145 315 75 78 55 313 346 39 308 137 107 86 105 69 54 109 108 102 130 124 108 116 121 119 115 66 53 47 40 32 17 22 31 49 65 66 56 47 33 23 16 3 350 346 341 343 341 339
128 306 67 80 98 125 114 40 32 241 180 252 105 57 111 143 26 137 122 146 131 116 119 117 122 112 88 55 37 37 33 31 41 57 69 76 67 56 49 38 31 27 28 25 16 4 354 346 338
165 40 36 68 83 226 139 149 165 111 334 64 103 74 72 22 134 134 141 137 128 95 108 109 118 112 88 79 62 49 57 55 53 58 61 71 60 47 44 38 26 21 18 13 9 3 358 0 354
72 69 65 83 15 5 80 127 184 330 318 22 64 87 53 34 103 112 124 113 99 100 108 104 110 102 86 84 72 71 62 42 29 23 6 316 55 31 13 12 13 7 10 7 6 8 8 1 356
41 93 56 71 51 7 32 57 47 35 28 358 55 61 44 59 96 100 115 119 102 115 119 124 116 101 97 97 88 71 52 34 18 29 51 85 23 354 352 3 356 359 12 8 5 359 0 358 357
95 66 72 97 79 46 146 74 71 62 17 1 2 68 44 31 102 125 129 126 115 118 131 148 143 135 137 128 103 77 49 28 27 46 61 63 48 57 45 57 42 15 7 1 356 354 352 343 347
100 90 69 8 185 177 148 111 142 161 191 236 162 171 191 178 125 123 125 126 123 117 118 155 165 159 148 132 112 88 56 40 44 53 44 31 29 48 63 42 24 15 11 16 15 7 356 344 337
117 69 154 193 170 201 173 138 178 286 118 114 6 152 144 143 136 130 126 126 120 110 95 92 179 164 154 138 126 92 57 52 54 39 16 360 8 38 39 20 7 22 22 17 7 358 353 355 359
86 103 213 183 182 183 162 147 168 154 153 42 64 91 139 149 153 148 160 162 146 125 99 93 158 167 160 165 170 139 74 61 49 35 23 14 23 49 25 8 2 11 12 359 350 343 335 335 354
101 172 165 215 168 143 146 164 146 143 226 199 169 158 159 162 170 174 185 195 171 153 100 112 136 179 183 188 198 182 109 63 42 27 19 17 29 28 5 358 9 11 2 351 345 339 338 332 343
329 276 163 157 189 137 156 138 227 180 232 159 169 161 158 171 184 190 195 196 200 187 113 137 130 150 174 186 182 183 149 67 31 22 15 14 11 1 359 2 4 1 358 352 349 347 343 339 341
57 345 186 165 141 121 140 178 187 212 150 130 143 163 174 185 193 195 198 187 199 206 196 169 176 175 176 169 177 195 173 63 15 13 9 9 11 3 360 359 1 357 355 351 349 350 350 343 336
108 54 5 80 148 149 135 3 141 209 148 142 160 186 191 195 196 196 197 195 205 210 207 198 197 195 194 180 163 176 180 299 358 13 11 8 5 356 352 353 355 0 358 353 356 357 352 347 338
59 71 5 56 159 169 110 265 230 191 167 164 183 200 201 212 205 208 204 204 206 204 203 207 212 197 192 197 199 202 207 250 312 6 16 14 11 7 360 2 9 5 359 0 4 9 6 351 345
61 37 34 255 146 204 126 263 222 175 167 185 194 201 210 210 216 220 213 207 205 203 207 193 190 201 206 210 225 220 216 229 253 334 11 19 17 16 13 6 3 7 6 8 13 8 11 9 14
17 205 210 329 199 136 188 277 319 168 182 191 203 214 216 217 225 227 221 213 207 206 204 204 206 211 210 230 241 245 239 239 248 270 333 11 18 16 9 5 5 2 13 16 16 18 15 16 46
209 221 224 216 213 191 213 253 335 194 200 202 206 224 229 218 228 220 222 218 214 207 198 209 213 209 213 228 253 258 249 251 243 252 278 330 350 5 1 1 358 358 7 14 18 20 22 24 32
191 198 244 225 212 156 231 266 251 229 221 217 217 224 229 238 241 222 223 218 215 210 208 215 220 218 214 232 257 252 243 246 243 243 257 271 299 331 344 351 353 351 4 10 16 21 22 26 24
148 255 268 114 12 160 69 268 332 270 222 211 223 232 235 242 228 209 218 220 214 209 212 224 223 218 218 232 240 246 230 241 241 245 246 262 273 292 322 339 342 342 349 359 9 18 16 25 27
217 201 107 58 45 89 347 313 350 329 244 212 243 246 241 235 238 218 193 214 217 206 212 234 229 228 221 233 236 241 236 240 239 239 243 258 263 275 295 319 325 331 342 346 350 1 13 13 19
332 243 122 117 60 278 11 279 314 306 296 247 243 239 245 246 240 231 202 203 198 205 211 249 249 246 230 231 238 250 249 257 250 234 246 267 261 253 264 301 313 313 316 331 333 335 344 355 4
291 61 92 96 130 107 354 56 275 338 315 282 256 256 267 253 243 238 210 201 188 171 198 283 271 263 255 245 253 267 274 275 262 241 260 276 275 242 253 277 292 294 301 308 327 332 321 318 320
120 55 39 53 70 21 334 84 294 299 290 308 299 274 252 271 279 261 194 145 131 170 181 216 261 249 245 254 250 258 268 266 269 267 271 288 274 255 257 266 277 283 290 297 299 309 309 305 300
85 66 353 3 8 241 300 22 246 289 311 265 293 315 323 324 335 22 125 139 156 170 175 203 232 234 228 241 246 248 258 268 273 274 267 283 273 272 274 270 277 280 285 291 292 290 291 298 296
40 138 145 231 263 270 318 244 262 230 303 308 301 302 313 326 360 33 136 152 157 168 182 202 217 217 216 230 239 240 245 259 266 270 280 278 288 286 286 280 284 279 286 285 284 288 292 293 293
189 42 148 105 25 41 263 295 319 272 279 352 337 334 325 340 12 8 144 154 166 178 199 207 217 226 211 223 230 236 242 252 263 274 272 275 284 288 287 287 288 289 288 290 288 286 286 289 289
134 146 35 14 161 287 291 285 244 310 292 303 327 321 331 337 9 17 147 168 180 190 203 208 212 223 216 221 227 237 246 256 263 271 278 285 286 286 289 291 291 292 293 293 290 287 287 287 289
84 340 58 116 124 175 272 276 225 259 278 217 264 307 323 339 353 24 107 188 193 203 211 201 180 216 229 227 229 239 251 260 266 271 278 282 285 288 286 290 294 291 289 290 289 288 289 286 287
143 177 133 121 242 160 149 273 281 279 317 217 278 301 321 326 339 356 108 170 203 216 217 214 206 221 235 233 233 246 260 267 270 275 284 288 285 292 291 293 292 291 290 290 289 290 292 295 296